www.pogodaiklimat.ru

Погода и климат >> Архив погоды >> Австралия >> Северная территория >> Джаберу


ПОГОДА в Джаберу

  • Прогноз погоды в Джаберу
  • Монитор погоды в Джаберу

АРХИВ ПОГОДЫ в Джаберу

Время (UTC), дата Ветер
(напр.,м/с)
 
Видим.   Явления Облачность Т
(С)
Тd
(С)
f
(%)
Тe
(С)
Тes
(С)
Комфортность P
(гПа)
Po
(гПа)
Тmin
(С)
Tmax
(С)
R
(мм)
R24
(мм)
S
(см)
02 19.04 В 4 н/о н/о +32.0 +18.9 46 +37 +37 очень
душно
1012.7 1009.5 +22.6
05 19.04 ЮВ 3 н/о 1/1 1500 м
[]
+34.2 +18.7 40 +39 +39 очень
душно
1009.4 1006.2
08 19.04 В 3 н/о н/о +32.6 +20.2 48 +39 +39 очень
душно
1008.5 1005.3
11 19.04 СВ 1 н/о 10/10 1000 м
[]
+29.4 +21.6 63 +37 +37 очень
душно
1010.3 1007.1
14 19.04 В 5 н/о н/о +28.4 +20.7 63 +35 +35 очень
душно
1011.6 1008.4 +35.0
17 19.04 В 3 н/о н/о +26.0 +20.6 72 +32 +32 очень
душно
1010.8 1007.6
20 19.04 В 2 н/о н/о +24.7 +20.4 77 +31 +31 очень
душно
1010.4 1007.2
23 19.04 В 4 н/о н/о +28.0 +20.8 65 +35 +35 очень
душно
1011.4 1008.2
02 20.04 В 4 н/о н/о +32.9 +18.3 42 +37 +37 очень
душно
1011.4 1008.2 +23.8
05 20.04 В 4 н/о н/о +34.7 +16.1 33 +37 +37 очень
душно
1008.6 1005.4
08 20.04 В 2 н/о н/о +33.7 +15.7 34 +36 +36 очень
душно
1007.9 1004.7
11 20.04 В 2 н/о 1/0 2000 м
[]
+29.1 +20.0 58 +35 +35 очень
душно
1009.9 1006.7
14 20.04 СЗ 2 н/о н/о +27.3 +23.1 78 +37 +37 очень
душно
1010.6 1007.4 +35.7
17 20.04 штиль 0 н/о н/о +25.3 +22.8 86 +33 +33 очень
душно
1009.9 1006.7
20 20.04 В 2 н/о н/о +25.1 +21.0 78 +32 +32 очень
душно
1009.6 1006.4
23 20.04 В 3 н/о н/о +27.7 +22.2 72 +36 +36 очень
душно
1011.3 1008.1
02 21.04 В 5 н/о н/о +33.4 +16.3 36 +36 +36 очень
душно
1010.9 1007.7 +24.3
05 21.04 В 4 н/о н/о +35.0 +13.2 27 +35 +35 очень
жарко
1008.3 1005.1
08 21.04 ЮВ 3 н/о 1/0
[]
+34.5 +13.3 28 +35 +35 очень
жарко
1007.8 1004.6
11 21.04 В 1 н/о н/о +29.1 +18.5 53 +34 +34 очень
душно
1010.2 1007.0
14 21.04 СЗ 2 н/о 1/0 2000 м
[]
+27.0 +23.5 81 +37 +37 очень
душно
1011.4 1008.2 +36.2
17 21.04 штиль 0 н/о н/о +25.4 +22.9 86 +34 +34 очень
душно
1010.3 1007.1
20 21.04 В 2 н/о н/о +23.9 +22.0 89 +31 +31 очень
душно
1009.8 1006.6
23 21.04 В 3 н/о н/о +27.2 +21.9 73 +35 +35 очень
душно
1011.3 1008.1
02 22.04 В 6 н/о н/о +33.1 +18.1 41 +37 +37 очень
душно
1011.0 1007.8 +23.6
05 22.04 В 5 н/о н/о +35.4 +13.5 27 +36 +36 очень
жарко
1008.8 1005.6
08 22.04 ЮВ 4 н/о н/о +34.2 +13.6 29 +35 +35 очень
жарко
1008.3 1005.1
11 22.04 В 3 н/о н/о +28.4 +17.3 51 +32 +32 душно 1010.7 1007.5
14 22.04 ЮВ 3 н/о н/о +27.2 +17.9 57 +32 +32 очень
душно
1011.5 1008.3 +36.1
17 22.04 СВ 1 н/о н/о +25.2 +19.3 70 +30 +30 душно 1010.6 1007.4
20 22.04 ЮВ 2 н/о н/о +24.0 +20.5 81 +30 +30 очень
душно
1010.6 1007.4
23 22.04 В 3 н/о н/о +27.5 +20.8 67 +34 +34 очень
душно
1011.9 1008.7
02 23.04 В 7 н/о н/о +33.2 +15.7 35 +36 +36 очень
душно
1011.5 1008.3 +22.7
05 23.04 В 5 н/о 1/0 2000 м
[]
+34.5 +15.4 32 +36 +36 душно 1009.0 1005.8
08 23.04 ЮВ 4 н/о 1/0
[]
+34.1 +17.3 37 +38 +38 очень
душно
1008.7 1005.5
11 23.04 ЮВ 3 н/о 10/0 2000 м
[]
+30.9 +19.3 50 +37 +37 очень
душно
1010.9 1007.7
14 23.04 В 4 н/о н/о +29.1 +20.8 61 +36 +36 очень
душно
1011.7 1008.5 +35.9
17 23.04 штиль 0 н/о н/о +26.5 +20.3 69 +33 +33 очень
душно
1010.6 1007.4
20 23.04 штиль 0 н/о 1/0
[]
+25.8 +21.0 75 +32 +32 очень
душно
1011.1 1007.9
23 23.04 В 2 н/о н/о +28.0 +20.3 63 +34 +34 очень
душно
1012.3 1009.1
02 24.04 В 5 н/о н/о +34.2 +18.3 39 +38 +38 очень
душно
1011.2 1008.0
05 24.04 В 5 н/о 9/0 2000 м
[]
+35.6 +18.2 36 +40 +40 очень
душно
1009.0 1005.8
08 24.04 В 4 н/о н/о +34.1 +19.0 41 +39 +39 очень
душно
1008.6 1005.4
11 24.04 ЮВ 3 н/о 10/10 1500 м
[]
+30.7 +20.6 55 +38 +38 очень
душно
1010.6 1007.4
14 24.04 В 3 н/о н/о +29.0 +20.2 59 +35 +35 очень
душно
1010.9 1007.7
17 24.04 штиль 0 н/о н/о +26.6 +20.2 68 +33 +33 очень
душно
1009.8 1006.6
20 24.04 В 2 н/о н/о +25.5 +19.2 68 +31 +31 очень
душно
1009.7 1006.5
23 24.04 В 2 н/о н/о +28.7 +19.1 56 +34 +34 очень
душно
1010.7 1007.5
02 25.04 ЮВ 5 н/о 1/1 1500 м
[]
+33.1 +19.2 44 +38 +38 очень
душно
1010.7 1007.5 +23.4
05 25.04 ЮВ 4 н/о 1/0 2000 м
[]
+34.6 +18.2 38 +39 +39 очень
душно
1008.0 1004.8
08 25.04 ЮВ 3 н/о н/о +33.6 +16.9 37 +37 +37 очень
душно
1007.7 1004.5
11 25.04 ЮВ 3 н/о н/о +29.7 +16.5 45 +33 +33 душно 1010.2 1007.0
14 25.04 ЮВ 3 н/о н/о +27.6 +17.5 54 +32 +32 очень
душно
1010.8 1007.6 +35.6
17 25.04 ЮВ 2 н/о н/о +25.0 +18.9 69 +30 +30 душно 1009.6 1006.4
20 25.04 В 2 н/о н/о +23.9 +18.5 72 +28 +28 душно 1009.6 1006.4
23 25.04 Ю 2 н/о н/о +26.9 +19.0 62 +32 +32 очень
душно
1011.2 1008.0

 

Местоположение метеостанции Джаберу (Северная территория, Австралия): широта -12.67 долгота 132.90 высота над уровнем моря 28 м.

В архиве по умолчанию представлена погода в Джаберу за последнюю неделю. Архивные данные за месяц целиком и за предыдущие месяцы, начиная с января 2011 года, Вы можете получить, выбрав интересующий диапазон дат из раскрывающегося списка и нажав кнопку "Ввод!".


*Определитесь, кто Вы:
робот инопланетянин человек

Внимание! Время в таблицах - всемирное. Для получения местного времени необходимо прибавить поправку, которая равна 9.5 ч.

Смотрите также архив погоды в соседних городах и на ближайших метеорологических станциях:

Погода на Центральном плато Арнем (Северная территория, Австралия) (76 км)
Погода в Пойнт Стьюарт (Северная территория, Австралия) (121 км)
Погода в Уорруви (Северная территория, Австралия) (125 км)
Погода в Манингриде (Северная территория, Австралия) (160 км)
Погода в Милд Пойнт (Северная территория, Австралия) (174 км)
Погода на Острове Маклер (Северная территория, Австралия) (180 км)
Погода в Булман Уимол (Северная территория, Австралия) (191 км)
Погода в Кейп-Доне (Северная территория, Австралия) (194 км)
Погода в Батчелоре (Северная территория, Австралия) (208 км)
Погода в Тиндале (Северная территория, Австралия) (213 км)

Пояснения к столбцам:

Ветер - указаны скорость ветра в м/с - средняя за 10 мин, порывы в срок и между сроками (в фигурных скобках) и направление, откуда дует ветер: С - северный, СВ - северо-восточный, В - восточный, ЮВ - юго-восточный, Ю - южный, ЮЗ - юго-западный, З - западный, СЗ - северо-западный.
Видимость - горизонтальная дальность видимости в метрах или километрах. При видимости от 1 до 10 км при отсутствии осадков обычно наблюдается дымка, при ухудшении видимости до 1 км и менее - туман. В сухую погоду видимость может ухудшаться дымом, пылью или мглою.
Явления - указаны атмосферные явления, наблюдавшиеся в срок или в последний час перед сроком; фигурными скобками обозначены явления, наблюдавшиеся между сроками (за 1-3 часа до срока); квадратными скобками обозначены град или гололедные отложения с указанием их диаметра в мм.
Облачность - указаны через наклонную черту общая и нижняя облачность в баллах и высота нижней границы облаков в метрах; квадратными скобками обозначены формы облаков: Ci - перистые, Cs - перисто-слоистые, Cc - перисто-кучевые, Ac - высококучевые, As - высокослоистые, Sc - слоисто-кучевые, Ns - слоисто-дождевые, Cu - кучевые, Cb - кучево-дождевые. Подробнее классификацию облаков см. в Атласе облаков (PDF).
T - Температура воздуха - температура, измеренная на высоте 2 м над землей.
Td - Температура точки росы - температура, при понижении до которой содержащийся в воздухе водяной пар достигнет насыщения.
f - Относительная влажность воздуха - влажноcть воздуха, измеренная на высоте 2 м над землей.
Te - Эффективная температура - температура, которую ощущает одетый по сезону человек в тени. Характеристика душности погоды. При расчете учитывается влияние влажности воздуха и скорости ветра на теплоощущения человека.
Tes - Эффективная температура на солнце - температура, которую ощущает человек, с поправкой на солнечный нагрев. Характеристика знойности погоды. Зависит от высоты солнца над горизонтом, облачности и скорости ветра. Ночью, в пасмурную погоду, а также при ветре 12 м/с и более поправка равна нулю.
P - Атмосферное давление - приведенное к уровню моря атмосферное давление.
Po - Атмосферное давление - измеренное на уровне метеостанции атмосферное давление.
Tmin - Минимальная температура - минимум температуры воздуха на высоте 2 м над землей.
Tmax - Максимальная температура - максимум температуры воздуха на высоте 2 м над землей.
R - Количество осадков - Количество выпавших осадков за период времени, мм. При наведении курсора мыши на число - период времени, за который выпало указанное количество осадков.
R24 - Количество осадков - Количество выпавших осадков за 24 часа, мм.
S - Снежный покров - Высота снежного покрова, см. При наведении курсора мыши на число - состояние снежного покрова и степень покрытия местности в баллах.